Alexandria, Egypt

4:25 PM EET on April 24, 2017 (GMT +0200)
Alexandria International

Weather History for HEAX - October, 2012

Change the Weather History Date:

Wednesday, October 17, 2012

  Actual Average Record
Temperature  
Mean Temperature 79 °F -  
Max Temperature 85 °F 75 °F 93 °F (2013)
Min Temperature 73 °F 60 °F 58 °F (2013)
Cooling Degree Days 14    
Growing Degree Days 29 (Base 50)    
Moisture  
Dew Point 71 °F    
Average Humidity 79    
Maximum Humidity 89    
Minimum Humidity 60    
Precipitation  
Precipitation 0.00 in 0.03 in - ()
Sea Level Pressure  
Sea Level Pressure 29.98 in    
Wind  
Wind Speed 5 mph ()    
Max Wind Speed 13 mph    
Max Gust Speed -    
Visibility 6.2 miles    
Events Thunderstorm    
Averages and records for this station are not official NWS values.
T = Trace of Precipitation, MM = Missing Value Source: Averaged Metar Reports

Daily Weather History Graph

Daily Weather History Graph

Search for Another Location

Airport or City:

Trip Planner

Search our weather history database for the weather conditions in past years. The results will help you decide how hot, cold, wet, or windy it might be!

Date:

Astronomy

Oct. 17, 2012 Rise Set
Actual Time 6:04 AM EET 5:25 PM EET
Civil Twilight 5:40 AM EET 5:50 PM EET
Nautical Twilight 5:11 AM EET 6:18 PM EET
Astronomical Twilight 4:43 AM EET 6:46 PM EET
Moon 8:04 AM EET (10/17) 6:55 PM EET (10/17)
Length of Visible Light 12h 10m
Length of Day
11h 21m
Waxing Crescent, 5% of the Moon is Illuminated
Oct 17
Waxing Crescent
Oct 22
First Quarter
Oct 29
Full
Nov 7
Last Quarter
Nov 14
New

Hourly Weather History & Observations

Time (EET) Temp. Heat Index Dew Point Humidity Pressure Visibility Wind Dir Wind Speed Gust Speed Precip Events Conditions
12:00 AM 75.2 °F - 69.8 °F 83% 30.01 in - Calm Calm - N/A   Clear
1:00 AM 75.2 °F - 71.6 °F 89% 30.01 in - NNE 3.5 mph - N/A   Clear
2:00 AM 74 °F - 70 °F 83% 30.04 in 6 mi SW 6.9 mph - -   Mostly Cloudy
2:00 AM 75.2 °F - 69.8 °F 83% 30.04 in 6.2 mi SW 6.9 mph - N/A   Scattered Clouds
3:00 AM 73.4 °F - 69.8 °F 88% 30.04 in 6.2 mi WSW 6.9 mph - N/A   Scattered Clouds
4:00 AM 73.4 °F - 69.8 °F 88% 30.04 in 6.2 mi West 2.3 mph - N/A   Scattered Clouds
5:00 AM 77.0 °F - 69.8 °F 78% 29.98 in 6.2 mi NNE 8.1 mph - N/A   Scattered Clouds
6:00 AM 77.0 °F - 69.8 °F 78% 29.98 in 6.2 mi NE 9.2 mph - N/A   Scattered Clouds
7:00 AM 77.0 °F - 69.8 °F 78% 29.98 in 6.2 mi NE 9.2 mph - N/A   Scattered Clouds
8:00 AM 78 °F - 70 °F 70% 29.99 in 6 mi NE 11.5 mph - -   Partly Cloudy
8:00 AM 77.0 °F - 69.8 °F 78% 29.98 in 6.2 mi NE 11.5 mph - N/A   Scattered Clouds
9:00 AM 78.8 °F - 69.8 °F 74% 29.98 in 6.2 mi NE 11.5 mph - N/A   Mostly Cloudy
10:00 AM 77.0 °F - 69.8 °F 78% 29.98 in 6.2 mi NE 12.7 mph - N/A   Mostly Cloudy
11:00 AM 80.6 °F 83.9 °F 69.8 °F 70% 29.98 in 6.2 mi NNE 5.8 mph - N/A Thunderstorm Thunderstorm
12:00 PM 80.6 °F 83.9 °F 69.8 °F 70% 29.98 in 6.2 mi ENE 8.1 mph - N/A Thunderstorm Thunderstorm
1:00 PM 82.4 °F 87.2 °F 71.6 °F 70% 29.98 in 6.2 mi NE 8.1 mph - N/A   Scattered Clouds
2:00 PM 83 °F - 71 °F 60% 29.96 in 6 mi NE 5.8 mph - -  
2:00 PM 84.2 °F 89.6 °F 71.6 °F 66% 29.95 in 6.2 mi NE 5.8 mph - N/A   Scattered Clouds
3:00 PM 80.6 °F 85.4 °F 73.4 °F 79% 29.95 in 6.2 mi East 9.2 mph - N/A   Scattered Clouds
4:00 PM 80.6 °F 85.4 °F 73.4 °F 79% 29.95 in 6.2 mi NE 5.8 mph - N/A   Scattered Clouds
5:00 PM 78.8 °F - 71.6 °F 78% 29.92 in 6.2 mi East 9.2 mph - N/A   Scattered Clouds
6:00 PM 77.0 °F - 71.6 °F 83% 29.95 in 6.2 mi South 5.8 mph - N/A   Scattered Clouds
7:00 PM 75.2 °F - 69.8 °F 83% 29.98 in 6.2 mi Calm Calm - N/A   Scattered Clouds
8:00 PM 76 °F - 71 °F 81% 29.98 in 6 mi Calm Calm - -   Mostly Cloudy
8:00 PM 75.2 °F - 71.6 °F 89% 29.98 in 6.2 mi Calm Calm - N/A   Scattered Clouds
9:00 PM 77.0 °F - 71.6 °F 83% 29.95 in 6.2 mi NE 6.9 mph - N/A   Scattered Clouds
10:00 PM 77.0 °F - 71.6 °F 83% 29.95 in 6.2 mi NNE 8.1 mph - N/A   Scattered Clouds
11:00 PM 77.0 °F - 71.6 °F 83% 29.98 in 6.2 mi NE 5.8 mph - N/A   Scattered Clouds